Location: Arbon
(43.0005°N, 0.7472°E)
Time: 10:17:21
(UTC+00:00)

Courier 1B Rocket - Pass Details

Date: 03 December 2020
Orbit: 920 x 1202 km, 28.2° (Epoch: 19 January)

Event Time Altitude Azimuth Distance (km) Brightness Sun altitude
Exits shadow 03:39:55 19° 165° (SSE) 2,481 7.1 -37.8°
Maximum altitude 03:40:12 19° 163° (SSE) 2,481 7.2 -37.8°
Drops below altitude 10° 03:45:23 10° 121° (ESE) 3,130 8.2 -36.8°
Sets 03:49:09 0° 105° (ESE) 4,089 9.2 -36.2°
